Cortez, CO

8:35 PM MDT on April 28, 2017 (GMT -0600)
Cortez Municipal

Weather History for KCEZ - December, 2014

Change the Weather History Date:

Sunday, December 21, 2014

  Actual Average Record
Temperature  
Mean Temperature 33 °F 28 °F  
Max Temperature 43 °F 41 °F 50 °F (2005)
Min Temperature 23 °F 14 °F 0 °F (1998)
Degree Days  
Heating Degree Days 32 37  
Month to date heating degree days 607 755  
Since 1 July heating degree days 1872 2280  
Cooling Degree Days 0 0  
Month to date cooling degree days 0 0  
Year to date cooling degree days 537 426  
Moisture  
Dew Point 27 °F    
Average Humidity 77    
Maximum Humidity 96    
Minimum Humidity 57    
Precipitation  
Precipitation 0.00 in 0.03 in 0.43 in (2010)
Month to date precipitation 0.62 0.55  
Year to date precipitation 8.83 13.28  
Sea Level Pressure  
Sea Level Pressure 30.03 in    
Wind  
Wind Speed 5 mph (NE)    
Max Wind Speed 15 mph    
Max Gust Speed 20 mph    
Visibility 10 miles    
Events      
T = Trace of Precipitation, MM = Missing Value Source: NWS Daily Summary

Daily Weather History Graph

Daily Weather History Graph

Search for Another Location

Airport or City:

Trip Planner

Search our weather history database for the weather conditions in past years. The results will help you decide how hot, cold, wet, or windy it might be!

Date:

Astronomy

Dec. 21, 2014 Rise Set
Actual Time 7:24 AM MST 5:00 PM MST
Civil Twilight 6:55 AM MST 5:29 PM MST
Nautical Twilight 6:23 AM MST 6:02 PM MST
Astronomical Twilight 5:51 AM MST 6:34 PM MST
Moon 6:45 AM MST (12/21) 5:08 PM MST (12/21)
Length of Visible Light 10h 34m
Length of Day
9h 35m
Waning Crescent, 0% of the Moon is Illuminated
Dec 21
Waning Crescent
Dec 21
New
Dec 28
First Quarter
Jan 4
Full
Jan 13
Last Quarter

Hourly Weather History & Observations

Time (MST) Temp. Windchill Dew Point Humidity Pressure Visibility Wind Dir Wind Speed Gust Speed Precip Events Conditions
12:53 AM 28.9 °F - 27.0 °F 92% 30.08 in 10.0 mi Calm Calm - N/A   Mostly Cloudy
1:53 AM 26.1 °F - 24.1 °F 92% 30.11 in 10.0 mi Calm Calm - N/A   Partly Cloudy
2:53 AM 25.0 °F 20.7 °F 23.0 °F 92% 30.11 in 10.0 mi East 3.5 mph - N/A   Clear
3:53 AM 24.1 °F 17.0 °F 21.9 °F 91% 30.10 in 10.0 mi NE 5.8 mph - N/A   Clear
4:53 AM 23.0 °F - 21.0 °F 92% 30.07 in 10.0 mi Calm Calm - N/A   Clear
5:53 AM 25.0 °F 19.3 °F 23.0 °F 92% 30.06 in 10.0 mi East 4.6 mph - N/A   Clear
6:53 AM 26.1 °F 17.6 °F 24.1 °F 92% 30.06 in 10.0 mi ENE 8.1 mph - N/A   Clear
7:53 AM 27.0 °F - 24.1 °F 89% 30.09 in 10.0 mi Calm Calm - N/A   Clear
8:53 AM 30.9 °F - 28.0 °F 89% 30.07 in 10.0 mi Calm Calm - N/A   Clear
9:53 AM 36.0 °F 32.1 °F 28.9 °F 76% 30.10 in 10.0 mi North 4.6 mph - N/A   Scattered Clouds
10:53 AM 37.9 °F 32.7 °F 30.0 °F 73% 30.04 in 10.0 mi East 6.9 mph - N/A   Scattered Clouds
11:53 AM 39.0 °F - 28.9 °F 67% 30.02 in 10.0 mi Calm Calm - N/A   Scattered Clouds
12:53 PM 41.0 °F 34.3 °F 30.0 °F 65% 30.00 in 10.0 mi WNW 11.5 mph - N/A   Scattered Clouds
1:53 PM 43.0 °F 37.7 °F 28.9 °F 58% 29.97 in 10.0 mi NNW 9.2 mph - N/A   Mostly Cloudy
2:53 PM 43.0 °F 37.2 °F 30.0 °F 60% 29.97 in 10.0 mi NW 10.4 mph - N/A   Mostly Cloudy
3:53 PM 41.0 °F 34.7 °F 28.9 °F 62% 29.98 in 10.0 mi NW 10.4 mph - N/A   Clear
4:53 PM 37.9 °F 33.5 °F 28.9 °F 70% 30.00 in 10.0 mi NE 5.8 mph - N/A   Scattered Clouds
5:53 PM 37.0 °F 32.4 °F 30.0 °F 76% 29.99 in 10.0 mi NE 5.8 mph - N/A   Overcast
6:53 PM 37.0 °F 33.3 °F 30.0 °F 76% 30.00 in 10.0 mi NE 4.6 mph - N/A   Overcast
7:53 PM 35.1 °F 30.1 °F 30.0 °F 82% 29.98 in 10.0 mi NNE 5.8 mph - N/A   Mostly Cloudy
8:53 PM 34.0 °F - 30.0 °F 85% 29.96 in 10.0 mi Calm Calm - N/A   Mostly Cloudy
9:53 PM 33.1 °F 28.7 °F 28.9 °F 85% 29.97 in 10.0 mi East 4.6 mph - N/A   Clear
10:53 PM 32.0 °F 24.8 °F 28.9 °F 88% 29.95 in 10.0 mi ENE 8.1 mph - N/A   Clear
11:53 PM 30.9 °F 22.8 °F 28.0 °F 89% 29.96 in 10.0 mi ENE 9.2 mph - N/A   Clear